CW2449 Weather Reports


Display with metric or nautical units.
time (UTC)temp
F
wind
direction
speed
MPH
gust
MPH
rain 1hr
in
rain 24hr
in
rain mn
in
humidity
%
barometer
mb
20260510130026 62 114 2.0 4.0 0.00 0.00 0.00 100 1016.5
20260510124511 62 113 0.0 2.0 0.00 0.00 0.00 100 1016.4
20260510123029 61 112 2.0 4.0 0.00 0.00 0.00 100 1016.3
20260510121600 61 114 0.0 0.0 0.00 0.00 0.00 100 1016.2
20260510120008 61 114 0.0 0.0 0.00 0.00 0.00 100 1016.1
20260510114530 60 112 0.0 2.0 0.00 0.00 0.00 100 1015.7
20260510113056 60 112 0.0 2.0 0.00 0.00 0.00 100 1015.5
20260510111557 60 112 0.0 0.0 0.00 0.00 0.00 100 1015.2
20260510110032 60 112 0.0 0.0 0.00 0.00 0.00 100 1015.0
20260510104524 60 112 0.0 0.0 0.00 0.00 0.00 100 1014.7
20260510103042 60 112 0.0 0.0 0.00 0.00 0.00 100 1014.4
20260510101554 60 112 0.0 0.0 0.00 0.00 0.00 100 1014.3
20260510100100 61 112 0.0 0.0 0.00 0.00 0.00 100 1014.0
20260510094532 61 112 0.0 0.0 0.00 0.00 0.00 100 1013.7
20260510093024 61 112 0.0 0.0 0.00 0.00 0.00 100 1013.6
20260510091541 60 112 0.0 0.0 0.00 0.00 0.00 100 1013.5
20260510090038 60 112 0.0 0.0 0.00 0.00 0.00 100 1013.5
20260510084527 60 112 0.0 0.0 0.00 0.00 0.00 100 1013.3
20260510083015 60 112 0.0 0.0 0.00 0.00 0.00 100 1013.2
20260510081513 61 112 0.0 0.0 0.00 0.00 0.00 100 1013.3
20260510080008 61 112 0.0 0.0 0.00 0.00 0.00 100 1013.3
20260510074557 61 112 0.0 0.0 0.00 0.00 0.00 100 1013.0
20260510073050 62 112 0.0 0.0 0.00 0.00 0.00 100 1012.9
20260510071511 62 112 0.0 0.0 0.00 0.00 0.00 100 1012.9
20260510070005 62 112 0.0 0.0 0.00 0.00 0.00 100 1012.8
20260510064510 63 112 0.0 0.0 0.00 0.00 0.00 100 1013.0
20260510063053 63 112 0.0 0.0 0.00 0.00 0.00 100 1013.1
20260510061547 64 112 0.0 0.0 0.00 0.00 0.00 100 1013.1
20260510060036 64 112 0.0 0.0 0.00 0.00 0.00 100 1013.1
20260510054548 64 112 0.0 0.0 0.00 0.00 0.00 100 1013.1
20260510053042 64 112 0.0 0.0 0.00 0.00 0.00 100 1013.0
20260510051544 65 112 0.0 0.0 0.00 0.00 0.00 100 1012.9
20260510044557 66 111 0.0 0.0 0.00 0.00 0.00 100 1013.0
20260510043020 67 111 0.0 0.0 0.00 0.00 0.00 100 1012.9
20260510041516 67 111 0.0 0.0 0.00 0.00 0.00 100 1013.0
20260510040010 67 110 0.0 0.0 0.00 0.00 0.00 100 1013.2
20260510034544 68 110 0.0 0.0 0.00 0.00 0.00 100 1013.3
20260510033028 68 110 0.0 3.0 0.00 0.00 0.00 100 1013.4
20260510031539 68 116 0.0 0.0 0.00 0.00 0.00 100 1013.4
20260510030057 68 116 0.0 2.0 0.00 0.00 0.00 100 1013.3
20260510024501 69 116 0.0 4.0 0.00 0.00 0.00 100 1013.1
20260510023047 68 116 1.0 3.0 0.00 0.00 0.00 100 1012.8
20260510021548 68 109 0.0 2.0 0.00 0.00 0.00 100 1012.6
20260510020008 68 109 0.0 0.0 0.00 0.00 0.00 100 1012.3
20260510014503 69 124 0.0 0.0 0.00 0.00 0.00 100 1012.0
20260510013101 69 124 0.0 0.0 0.00 0.00 0.00 100 1011.6
20260510011552 70 124 0.0 0.0 0.00 0.00 0.00 100 1011.3
20260510010055 72 123 0.0 0.0 0.00 0.00 0.00 100 1010.8
20260510004553 74 123 0.0 0.0 0.00 0.00 0.00 100 1010.6
20260510003048 76 122 0.0 0.0 0.00 0.00 0.00 21 1010.4
20260510001528 79 122 0.0 0.0 0.00 0.00 0.00 30 1010.4
20260510000034 80 121 0.0 0.0 0.00 0.00 0.00 38 1010.3
20260509234618 80 122 1.0 3.0 0.00 0.00 0.00 38 1010.2
20260509233100 80 130 0.0 2.0 0.00 0.00 0.00 37 1010.2
20260509233005 80 130 0.0 3.0 0.00 0.00 0.00 36 1010.2
20260509231516 80 144 2.0 4.0 0.00 0.00 0.00 37 1010.1
20260509230021 79 116 1.0 3.0 0.00 0.00 0.00 26 1010.2
20260509224514 78 111 2.0 4.0 0.00 0.00 0.00 31 1010.3
20260509223005 79 129 1.0 3.0 0.00 0.00 0.00 30 1010.1
20260509221603 78 137 0.0 4.0 0.00 0.00 0.00 24 1009.8
20260509220057 78 144 2.0 4.0 0.00 0.00 0.00 29 1009.9
20260509214516 78 146 1.0 4.0 0.00 0.00 0.00 24 1009.9
20260509213059 78 129 0.0 4.0 0.00 0.00 0.00 28 1009.9
20260509211559 78 99 0.0 3.0 0.00 0.00 0.00 25 1010.1
20260509210026 78 139 1.0 4.0 0.00 0.00 0.00 30 1010.2
20260509204549 77 139 2.0 7.0 0.00 0.00 0.00 33 1010.2
20260509203051 78 106 2.0 5.0 0.00 0.00 0.00 29 1010.4
20260509201520 78 152 3.0 5.0 0.00 0.00 0.00 27 1010.6
20260509200047 77 118 2.0 6.0 0.00 0.00 0.00 13 1010.5
20260509194535 77 112 3.0 8.0 0.00 0.00 0.00 16 1010.8
20260509193026 77 109 3.0 7.0 0.00 0.00 0.00 22 1010.8
20260509191518 77 137 1.0 8.0 0.00 0.00 0.00 22 1011.0
20260509190033 77 118 2.0 5.0 0.00 0.00 0.00 30 1010.8
20260509184547 77 112 3.0 7.0 0.00 0.00 0.00 27 1010.8
20260509183007 77 143 1.0 6.0 0.00 0.00 0.00 24 1011.0
20260509181518 76 128 3.0 10.0 0.00 0.00 0.00 12 1011.1
20260509180016 77 111 4.0 11.0 0.00 0.00 0.00 13 1011.3
20260509174527 76 103 4.0 8.0 0.00 0.00 0.00 4 1011.4
20260509173056 74 136 3.0 7.0 0.00 0.00 0.00 100 1011.5
20260509171539 74 125 3.0 6.0 0.00 0.00 0.00 100 1011.6
20260509170030 73 99 3.0 9.0 0.00 0.00 0.00 100 1011.5
20260509164549 73 114 2.0 7.0 0.00 0.00 0.00 100 1011.7
20260509163052 72 102 4.0 8.0 0.00 0.00 0.00 100 1011.7
20260509161544 71 120 3.0 9.0 0.00 0.00 0.00 100 1011.7
20260509160029 71 100 4.0 9.0 0.00 0.00 0.00 100 1012.0
20260509154600 71 107 4.0 8.0 0.00 0.00 0.00 100 1012.0
20260509153019 69 119 4.0 10.0 0.00 0.00 0.00 100 1011.8
20260509151508 69 109 3.0 8.0 0.00 0.00 0.00 100 1011.8
20260509150001 69 109 6.0 9.0 0.00 0.00 0.00 100 1011.5
20260509144501 68 139 2.0 6.0 0.00 0.00 0.00 100 1011.3
20260509143108 66 114 2.0 5.0 0.00 0.00 0.00 100 1011.4
20260509141525 64 122 1.0 3.0 0.00 0.00 0.00 100 1011.3
20260509140009 63 143 1.0 4.0 0.00 0.00 0.00 100 1011.4
20260509134515 62 145 1.0 5.0 0.00 0.00 0.00 100 1011.3
20260509133107 61 137 2.0 5.0 0.00 0.00 0.00 100 1011.3
20260509131549 61 146 1.0 5.0 0.00 0.00 0.00 100 1011.5